Weather History for Tillamook, OR

Change the Weather History Date:

Monday, March 17, 2014

  Actual Average (KMMV) Record (KMMV)
Temperature  
Mean Temperature - 47 °F  
Max Temperature - 56 °F 77 °F (1947)
Min Temperature - 37 °F 14 °F (1920)
Degree Days  
Heating Degree Days 18  
Month to date heating degree days 330  
Since 1 July heating degree days 3709  
Cooling Degree Days 0  
Month to date cooling degree days 0  
Year to date cooling degree days 0  
Moisture  
Dew Point -    
Average Humidity    
Maximum Humidity    
Minimum Humidity    
Precipitation  
Precipitation 0.14 in 0.14 in 0.97 in (1932)
Month to date precipitation 2.25  
Year to date precipitation 12.79  
Sea Level Pressure  
Sea Level Pressure 30.35 in    
Wind  
Wind Speed 8 mph (WNW)    
Max Wind Speed 20 mph    
Max Gust Speed 28 mph    
Visibility 10 miles    
Events Rain    
T = Trace of Precipitation, MM = Missing Value Source: NWS Daily Summary

Daily Weather History Graph

Daily Weather History Graph

Search for Another Location

Airport:

Trip Planner

Search our weather history database for the weather conditions in past years. The results will help you decide how hot, cold, wet, or windy it might be!

Date:

Astronomy

Mar. 17, 2014 Rise Set
Actual Time 8:23 AM MDT 8:24 PM MDT
Civil Twilight 7:54 AM MDT 8:53 PM MDT
Nautical Twilight 7:19 AM MDT 9:28 PM MDT
Astronomical Twilight 6:44 AM MDT 10:03 PM MDT
Moon 9:52 PM MDT (3/17) 8:38 AM MDT (3/17)
Length of Visible Light 12h 59m
Length of Day
12h 00m
Full, 99% of the Moon is Illuminated
Mar 17
Full
Mar 23
Last Quarter
Mar 30
New
Apr 7
First Quarter
Apr 15
Full

Hourly Weather History & Observations

Time (MDT) Temp. Dew Point Humidity Pressure Visibility Wind Dir Wind Speed Gust Speed Precip Events Conditions
12:15 AM - - N/A% 30.15 in 10.0 mi NW 5.8 mph - N/A Rain Light Rain
12:35 AM - - N/A% 30.16 in 10.0 mi Calm Calm - N/A   Drizzle
12:55 AM - - N/A% 30.16 in 10.0 mi WSW 3.5 mph - 0.01 in Rain Light Rain
1:15 AM - - N/A% 30.17 in 4.0 mi West 4.6 mph - 0.03 in Rain Rain
1:35 AM - - N/A% 30.17 in 10.0 mi Calm Calm - 0.06 in Rain Light Rain
1:55 AM - - N/A% 30.16 in 7.0 mi SSE 8.1 mph - 0.06 in Rain Light Rain
2:15 AM - - N/A% 30.17 in 10.0 mi NE 4.6 mph - 0.02 in   Overcast
2:35 AM - - N/A% 30.18 in 7.0 mi ESE 3.5 mph - 0.03 in Rain Light Rain
2:55 AM - - N/A% 30.19 in 5.0 mi NW 16.1 mph 19.6 mph 0.05 in Rain Rain
3:15 AM - - N/A% 30.21 in 10.0 mi NNW 15.0 mph - N/A   Overcast
3:35 AM - - N/A% 30.22 in 10.0 mi West 4.6 mph 9.2 mph N/A   Mostly Cloudy
3:55 AM - - N/A% 30.23 in 10.0 mi WNW 9.2 mph 16.1 mph N/A Rain Light Rain
4:15 AM - - N/A% 30.24 in 10.0 mi NW 13.8 mph 24.2 mph N/A   Overcast
4:35 AM - - N/A% 30.25 in 7.0 mi NW 13.8 mph 24.2 mph 0.01 in   Mostly Cloudy
4:55 AM - - N/A% 30.26 in 10.0 mi NW 11.5 mph 20.7 mph 0.01 in   Drizzle
5:15 AM - - N/A% 30.27 in 10.0 mi WNW 5.8 mph - 0.01 in   Overcast
5:35 AM - - N/A% 30.27 in 10.0 mi NW 5.8 mph 19.6 mph 0.01 in   Mostly Cloudy
5:55 AM - - N/A% 30.27 in 10.0 mi NW 15.0 mph 19.6 mph 0.01 in   Mostly Cloudy
6:15 AM - - N/A% 30.28 in 10.0 mi NW 8.1 mph - N/A   Overcast
6:35 AM - - N/A% 30.29 in 10.0 mi WNW 12.7 mph 19.6 mph N/A   Light Drizzle
6:55 AM - - N/A% 30.30 in 10.0 mi West 9.2 mph - N/A   Overcast
7:15 AM - - N/A% 30.31 in 10.0 mi West 13.8 mph 21.9 mph N/A   Overcast
7:35 AM - - N/A% 30.31 in 10.0 mi WNW 13.8 mph 21.9 mph N/A   Mostly Cloudy
7:55 AM - - N/A% 30.33 in 10.0 mi West 9.2 mph - N/A   Overcast
8:15 AM - - N/A% 30.33 in 10.0 mi WNW 9.2 mph - N/A   Mostly Cloudy
8:35 AM - - N/A% 30.34 in 10.0 mi West 6.9 mph - N/A   Scattered Clouds
8:55 AM - - N/A% 30.35 in 10.0 mi West 8.1 mph - N/A   Mostly Cloudy
9:15 AM - - N/A% 30.36 in 10.0 mi West 8.1 mph - N/A   Overcast
9:35 AM - - N/A% 30.37 in 10.0 mi West 9.2 mph - N/A   Overcast
9:55 AM - - N/A% 30.37 in 10.0 mi West 5.8 mph - N/A   Mostly Cloudy
10:15 AM - - N/A% 30.38 in 5.0 mi WNW 19.6 mph 27.6 mph N/A Rain Light Rain
10:35 AM - - N/A% 30.38 in 10.0 mi NW 4.6 mph - N/A   Overcast
10:55 AM - - N/A% 30.39 in 10.0 mi West 3.5 mph - N/A   Mostly Cloudy
11:15 AM - - N/A% 30.39 in 7.0 mi NW 13.8 mph 27.6 mph N/A   Mostly Cloudy
11:35 AM - - N/A% 30.40 in 10.0 mi WNW 17.3 mph 20.7 mph N/A   Overcast
11:55 AM - - N/A% 30.41 in 10.0 mi WNW 9.2 mph 21.9 mph N/A   Overcast
12:15 PM - - N/A% 30.41 in 10.0 mi West 8.1 mph - N/A   Mostly Cloudy
12:35 PM - - N/A% 30.41 in 10.0 mi NW 13.8 mph 19.6 mph N/A   Scattered Clouds
12:55 PM - - N/A% 30.42 in 10.0 mi NNW 11.5 mph - N/A   Mostly Cloudy
1:15 PM - - N/A% 30.42 in 10.0 mi NW 9.2 mph 19.6 mph N/A   Scattered Clouds
1:35 PM - - N/A% 30.42 in 7.0 mi WNW 12.7 mph - N/A Rain Light Rain
1:55 PM - - N/A% 30.42 in 10.0 mi NW 11.5 mph 17.3 mph N/A   Mostly Cloudy
2:15 PM - - N/A% 30.42 in 10.0 mi NW 16.1 mph 21.9 mph N/A   Mostly Cloudy
2:35 PM - - N/A% 30.42 in 10.0 mi NW 18.4 mph - N/A   Mostly Cloudy
2:55 PM - - N/A% 30.42 in 10.0 mi WNW 15.0 mph - N/A   Scattered Clouds
3:15 PM - - N/A% 30.42 in 10.0 mi WNW 19.6 mph - N/A   Scattered Clouds
3:35 PM - - N/A% 30.42 in 10.0 mi NW 12.7 mph 24.2 mph N/A   Mostly Cloudy
3:55 PM - - N/A% 30.42 in 10.0 mi WNW 10.4 mph - N/A   Scattered Clouds
4:15 PM - - N/A% 30.41 in 10.0 mi WNW 18.4 mph 24.2 mph N/A   Scattered Clouds
4:35 PM - - N/A% 30.41 in 10.0 mi WNW 15.0 mph - N/A   Scattered Clouds
4:55 PM - - N/A% 30.42 in 10.0 mi WNW 16.1 mph 23.0 mph N/A   Scattered Clouds
5:15 PM - - N/A% 30.42 in 10.0 mi WNW 15.0 mph 21.9 mph N/A   Clear
5:35 PM - - N/A% 30.42 in 10.0 mi WNW 13.8 mph 19.6 mph N/A   Clear
5:55 PM - - N/A% 30.42 in 10.0 mi WNW 16.1 mph 20.7 mph N/A   Scattered Clouds
6:15 PM - - N/A% 30.42 in 10.0 mi WNW 15.0 mph - N/A   Mostly Cloudy
6:35 PM - - N/A% 30.43 in 10.0 mi WNW 13.8 mph 20.7 mph N/A   Overcast
6:55 PM - - N/A% 30.42 in 10.0 mi WNW 9.2 mph - N/A   Mostly Cloudy
7:15 PM - - N/A% 30.42 in 10.0 mi WNW 10.4 mph - N/A   Mostly Cloudy
7:35 PM - - N/A% 30.42 in 10.0 mi WNW 10.4 mph - N/A   Overcast
7:55 PM - - N/A% 30.42 in 10.0 mi NNW 4.6 mph - N/A   Overcast
8:15 PM - - N/A% 30.42 in 10.0 mi Calm Calm - N/A   Mostly Cloudy
8:35 PM - - N/A% 30.42 in 10.0 mi SW 3.5 mph - N/A   Overcast
8:55 PM - - N/A% 30.42 in 10.0 mi Calm Calm - N/A Rain Light Rain
9:35 PM - - N/A% 30.41 in 10.0 mi SSE 4.6 mph - N/A   Light Drizzle
9:55 PM - - N/A% 30.42 in 10.0 mi Calm Calm - N/A   Overcast
10:15 PM - - N/A% 30.42 in 10.0 mi SSE 3.5 mph - N/A   Overcast
10:35 PM - - N/A% 30.42 in 10.0 mi SSE 4.6 mph - N/A   Overcast
10:55 PM - - N/A% 30.43 in 10.0 mi Calm Calm - N/A   Overcast
11:15 PM - - N/A% 30.43 in 7.0 mi Calm Calm - N/A   Light Drizzle
11:35 PM - - N/A% 30.43 in 10.0 mi SE 3.5 mph - N/A   Overcast
11:55 PM - - N/A% 30.42 in 10.0 mi SE 4.6 mph - N/A   Overcast